Location: Cheyres
(46.8153°N, 6.7877°E)
Time: 01:11:49
(UTC+00:00)

Tiros 1 - Pass Details

Date: 04 June 2022
Orbit: 629 x 663 km, 48.4° (Epoch: 05 July)

Event Time Altitude Azimuth Distance (km) Brightness Sun altitude
Rises 03:00:01 0° 286° (WNW) 2,925 10.2 -6.3°
Reaches altitude 10° 03:02:35 10° 275° (W) 2,018 9.3 -6.0°
Maximum altitude 03:06:30 27° 217° (SW) 1,210 8.0 -5.5°
Drops below altitude 10° 03:10:27 10° 159° (SSE) 2,026 9.5 -5.0°
Sets 03:13:03 0° 148° (SSE) 2,939 10.5 -4.6°
